Location: Knowlton
(51.2333°N, 1.2667°E)
Time: 04:57:36
(UTC+00:00)

Cosmos 1655 Rocket - Pass Details

Date: 18 April 2021
Orbit: 970 x 1007 km, 82.9° (Epoch: 06 May)

Event Time Altitude Azimuth Distance (km) Brightness Sun altitude
Rises 20:24:16 0° 351° (N) 3,716 7.8 -12.9°
Reaches altitude 10° 20:26:51 10° 355° (N) 2,758 7.0 -13.2°
Maximum altitude 20:33:06 60° 75° (ENE) 1,114 4.1 -14.0°
Enters shadow 20:37:46 18° 152° (SSE) 2,188 5.3 -14.6°
